This is the latest recevied weather packets stored in our database for station/object N4DBJ. If no packets are shown the sender has not sent any weather packets the latest 10 day(s).
| Time | Temp. | Humidity | Pressure | Rain* | Wind** | Luminosity | Snow |
|---|---|---|---|---|---|---|---|
| 1777745444 | 17.78° C | 44% | 1014.3 hPa | 0 mm | - | 852 W/m² | - |
| 1777745141 | 16.67° C | 45% | 1014.4 hPa | 0 mm | - | 890 W/m² | - |
| 1777744832 | 17.78° C | 51% | 1014.5 hPa | 0 mm | - | 222 W/m² | - |
| 1777744532 | 18.33° C | 52% | 1014.7 hPa | 0 mm | - | 868 W/m² | - |
| 1777744228 | 18.33° C | 50% | 1014.4 hPa | 0 mm | - | 872 W/m² | - |
| 1777743925 | 17.78° C | 46% | 1014.6 hPa | 0 mm | - | 354 W/m² | - |
| 1777743622 | 17.78° C | 49% | 1014.5 hPa | 0 mm | - | 233 W/m² | - |
| 1777743319 | 18.89° C | 45% | 1014.5 hPa | 0 mm | - | 885 W/m² | - |
| 1777743017 | 17.78° C | 49% | 1014.7 hPa | 0 mm | - | 904 W/m² | - |
| 1777742714 | 17.78° C | 47% | 1014.7 hPa | 0 mm | - | 248 W/m² | - |
| 1777742410 | 17.78° C | 45% | 1014.6 hPa | 0 mm | - | 741 W/m² | - |
| 1777742106 | 17.22° C | 50% | 1014.6 hPa | 0 mm | - | 278 W/m² | - |
| 1777741804 | 17.22° C | 46% | 1014.6 hPa | 0 mm | - | 233 W/m² | - |
| 1777741500 | 17.78° C | 49% | 1014.8 hPa | 0 mm | - | 872 W/m² | - |
| 1777741196 | 17.78° C | 47% | 1014.7 hPa | 0 mm | - | 858 W/m² | - |
| 1777740893 | 17.22° C | 52% | 1014.8 hPa | 0 mm | - | 850 W/m² | - |
| 1777740590 | 16.67° C | 48% | 1014.9 hPa | 0 mm | - | 833 W/m² | - |
| 1777740286 | 17.78° C | 47% | 1014.9 hPa | 0 mm | - | 821 W/m² | - |
| 1777739983 | 17.78° C | 52% | 1014.8 hPa | 0 mm | - | 804 W/m² | - |
| 1777739679 | 17.78° C | 49% | 1014.9 hPa | 0 mm | - | 394 W/m² | - |
| 1777739377 | 17.78° C | 46% | 1014.9 hPa | 0 mm | - | 164 W/m² | - |
| 1777739074 | 16.67° C | 49% | 1015.1 hPa | 0 mm | - | 792 W/m² | - |
| 1777738771 | 17.22° C | 51% | 1015.2 hPa | 0 mm | - | 832 W/m² | - |
| 1777738467 | 17.78° C | 46% | 1015.1 hPa | 0 mm | - | 859 W/m² | - |
| 1777738165 | 17.22° C | 48% | 1015.2 hPa | 0 mm | - | 835 W/m² | - |
* Rain latest hour (hover to see other rain measurements)
** Current wind speed in m/s (hover to see current wind gust speed)